Time,TemperatureF,DewpointF,PressureIn,WindDirection,WindDirectionDegrees,WindSpeedMPH,WindSpeedGustMPH,Humidity,HourlyPrecipIn,Conditions,Clouds,dailyrainin,SolarRadiationWatts/m^2,SoftwareType,DateUTC
2013-05-28 08:56:00,56.7,55.6,29.99,NNW,329,2.0,2.0,96,0.00,,,0.00,313,Wunderground v.1.15,2013-05-28 15:56:00,
2013-05-28 08:57:00,56.7,55.6,29.99,NNW,329,2.0,4.0,96,0.00,,,0.00,322,Wunderground v.1.15,2013-05-28 15:57:00,
2013-05-28 08:58:00,56.7,55.6,29.99,NNW,330,2.0,4.0,96,0.00,,,0.00,322,Wunderground v.1.15,2013-05-28 15:58:00,
2013-05-28 08:59:00,56.7,55.6,29.99,NNW,331,2.0,4.0,96,0.00,,,0.00,446,Wunderground v.1.15,2013-05-28 15:59:00,
2013-05-28 09:04:00,56.9,55.8,30.00,NNW,331,1.0,4.0,96,0.00,,,0.00,357,Wunderground v.1.15,2013-05-28 16:04:00,
2013-05-28 09:06:00,57.1,56.0,30.00,NNW,333,1.0,4.0,96,0.00,,,0.00,712,Wunderground v.1.15,2013-05-28 16:06:00,
2013-05-28 09:12:00,57.3,56.2,30.00,NNW,331,2.0,4.0,96,0.00,,,0.00,325,Wunderground v.1.15,2013-05-28 16:12:00,
2013-05-28 09:17:00,57.5,56.4,30.00,NNW,344,2.0,4.0,96,0.00,,,0.00,253,Wunderground v.1.15,2013-05-28 16:17:00,
2013-05-28 09:23:00,57.4,56.0,30.00,NW,309,3.0,4.0,95,0.00,,,0.00,410,Wunderground v.1.15,2013-05-28 16:23:00,
2013-05-28 09:28:00,57.4,56.0,29.99,NW,325,3.0,4.0,95,0.00,,,0.00,267,Wunderground v.1.15,2013-05-28 16:28:00,
2013-05-28 09:34:00,57.4,56.0,30.00,NW,313,3.0,7.0,95,0.00,,,0.00,603,Wunderground v.1.15,2013-05-28 16:34:00,
2013-05-28 09:39:00,57.5,56.1,30.00,NW,307,3.0,7.0,95,0.00,,,0.00,239,Wunderground v.1.15,2013-05-28 16:39:00,
2013-05-28 09:44:00,57.7,56.3,30.00,NW,306,3.0,7.0,95,0.00,,,0.00,163,Wunderground v.1.15,2013-05-28 16:44:00,
2013-05-28 09:49:00,57.8,56.4,30.00,WNW,290,2.0,7.0,95,0.00,,,0.00,132,Wunderground v.1.15,2013-05-28 16:49:00,
2013-05-28 09:54:00,57.9,56.2,30.00,NW,304,2.0,6.0,94,0.00,,,0.00,199,Wunderground v.1.15,2013-05-28 16:54:00,
2013-05-28 10:00:00,58.0,56.3,30.00,WNW,283,3.0,3.0,94,0.00,,,0.00,227,Wunderground v.1.15,2013-05-28 17:00:00,
2013-05-28 10:05:00,58.0,56.0,30.00,WNW,302,4.0,7.0,93,0.00,,,0.00,160,Wunderground v.1.15,2013-05-28 17:05:00,
2013-05-28 10:11:00,58.0,56.0,30.00,NW,319,3.0,4.0,93,0.00,,,0.00,265,Wunderground v.1.15,2013-05-28 17:11:00,
2013-05-28 10:16:00,58.4,56.4,30.00,NW,305,1.0,4.0,93,0.00,,,0.00,861,Wunderground v.1.15,2013-05-28 17:16:00,
2013-05-28 10:21:00,59.0,56.7,30.00,NW,324,2.0,5.0,92,0.00,,,0.00,967,Wunderground v.1.15,2013-05-28 17:21:00,
2013-05-28 10:26:00,59.2,56.6,30.00,NW,321,4.0,8.0,91,0.00,,,0.00,373,Wunderground v.1.15,2013-05-28 17:26:00,
2013-05-28 10:32:00,59.8,57.2,30.00,NW,325,2.0,4.0,91,0.00,,,0.00,471,Wunderground v.1.15,2013-05-28 17:32:00,
2013-05-28 10:37:00,60.6,57.3,30.00,NW,317,2.0,4.0,89,0.00,,,0.00,954,Wunderground v.1.15,2013-05-28 17:37:00,
2013-05-28 10:43:00,61.1,56.9,30.00,NW,319,3.0,5.0,86,0.00,,,0.00,926,Wunderground v.1.15,2013-05-28 17:43:00,
2013-05-28 10:48:00,61.5,56.9,29.99,NNE,15,2.0,5.0,85,0.00,,,0.00,900,Wunderground v.1.15,2013-05-28 17:48:00,
2013-05-28 10:53:00,62.1,56.9,29.99,NW,321,2.0,5.0,83,0.00,,,0.00,687,Wunderground v.1.15,2013-05-28 17:53:00,
2013-05-28 10:59:00,62.5,56.2,29.99,NW,316,2.0,8.0,80,0.00,,,0.00,972,Wunderground v.1.15,2013-05-28 17:59:00,
2013-05-28 11:04:00,62.8,55.8,29.99,NW,308,2.0,4.0,78,0.00,,,0.00,946,Wunderground v.1.15,2013-05-28 18:04:00,
2013-05-28 11:10:00,63.5,56.2,29.99,NW,308,2.0,5.0,77,0.00,,,0.00,928,Wunderground v.1.15,2013-05-28 18:10:00,
2013-05-28 11:15:00,64.1,56.4,29.99,NW,324,2.0,5.0,76,0.00,,,0.00,981,Wunderground v.1.15,2013-05-28 18:15:00,
2013-05-28 11:20:00,64.3,55.5,29.99,West,263,3.0,3.0,73,0.00,,,0.00,677,Wunderground v.1.15,2013-05-28 18:20:00,
2013-05-28 11:25:00,64.3,55.5,29.99,NW,320,3.0,4.0,73,0.00,,,0.00,1058,Wunderground v.1.15,2013-05-28 18:25:00,
2013-05-28 11:30:00,64.9,55.7,29.99,WNW,290,3.0,5.0,72,0.00,,,0.00,290,Wunderground v.1.15,2013-05-28 18:30:00,
2013-05-28 11:36:00,65.1,55.1,30.00,NW,319,3.0,5.0,70,0.00,,,0.00,995,Wunderground v.1.15,2013-05-28 18:36:00,
2013-05-28 11:42:00,65.6,55.2,30.00,WSW,256,2.0,4.0,69,0.00,,,0.00,1100,Wunderground v.1.15,2013-05-28 18:42:00,
2013-05-28 11:48:00,65.9,55.0,29.99,NNW,330,3.0,4.0,68,0.00,,,0.00,346,Wunderground v.1.15,2013-05-28 18:48:00,
2013-05-28 11:53:00,65.8,54.1,29.99,NW,320,3.0,6.0,66,0.00,,,0.00,993,Wunderground v.1.15,2013-05-28 18:53:00,
2013-05-28 11:59:00,66.1,55.2,30.00,NW,306,4.0,8.0,68,0.00,,,0.00,1028,Wunderground v.1.15,2013-05-28 18:59:00,
2013-05-28 12:04:00,66.5,54.8,30.00,West,279,3.0,10.0,66,0.00,,,0.00,967,Wunderground v.1.15,2013-05-28 19:04:00,
2013-05-28 12:10:00,66.9,55.2,30.00,NNW,333,4.0,4.0,66,0.00,,,0.00,960,Wunderground v.1.15,2013-05-28 19:10:00,
2013-05-28 12:16:00,67.4,55.2,29.99,NNW,343,3.0,5.0,65,0.00,,,0.00,958,Wunderground v.1.15,2013-05-28 19:16:00,
2013-05-28 12:21:00,67.9,54.8,29.99,NNW,332,3.0,4.0,63,0.00,,,0.00,963,Wunderground v.1.15,2013-05-28 19:21:00,
2013-05-28 12:26:00,68.4,55.3,29.98,NNW,344,2.0,5.0,63,0.00,,,0.00,969,Wunderground v.1.15,2013-05-28 19:26:00,
2013-05-28 12:32:00,69.2,55.2,29.98,WSW,257,3.0,11.0,61,0.00,,,0.00,984,Wunderground v.1.15,2013-05-28 19:32:00,
2013-05-28 12:37:00,69.7,55.2,29.99,WSW,237,4.0,11.0,60,0.00,,,0.00,1048,Wunderground v.1.15,2013-05-28 19:37:00,
2013-05-28 12:42:00,69.9,55.8,29.99,NNW,343,4.0,8.0,61,0.00,,,0.00,1157,Wunderground v.1.15,2013-05-28 19:42:00,
2013-05-28 12:48:00,70.3,55.8,29.99,WSW,256,4.0,10.0,60,0.00,,,0.00,1118,Wunderground v.1.15,2013-05-28 19:48:00,
2013-05-28 12:54:00,70.1,55.1,29.99,West,278,3.0,10.0,59,0.00,,,0.00,1130,Wunderground v.1.15,2013-05-28 19:54:00,
2013-05-28 12:59:00,70.5,56.9,29.98,West,278,3.0,10.0,62,0.00,,,0.00,1093,Wunderground v.1.15,2013-05-28 19:59:00,
2013-05-28 13:05:00,71.3,55.8,29.98,NW,309,2.0,8.0,58,0.00,,,0.00,1090,Wunderground v.1.15,2013-05-28 20:05:00,
2013-05-28 13:11:00,71.6,56.0,29.98,NNW,331,3.0,5.0,58,0.00,,,0.00,1069,Wunderground v.1.15,2013-05-28 20:11:00,
2013-05-28 13:16:00,72.4,56.3,29.98,WSW,241,2.0,5.0,57,0.00,,,0.00,1104,Wunderground v.1.15,2013-05-28 20:16:00,
2013-05-28 13:21:00,72.8,56.2,29.98,NW,312,1.0,3.0,56,0.00,,,0.00,1283,Wunderground v.1.15,2013-05-28 20:21:00,
2013-05-28 13:26:00,73.3,56.2,29.98,WSW,252,3.0,7.0,55,0.00,,,0.00,1155,Wunderground v.1.15,2013-05-28 20:26:00,
2013-05-28 13:32:00,73.6,55.4,29.97,North,355,3.0,5.0,53,0.00,,,0.00,555,Wunderground v.1.15,2013-05-28 20:32:00,
2013-05-28 13:37:00,73.1,55.5,29.97,WNW,302,2.0,5.0,54,0.00,,,0.00,659,Wunderground v.1.15,2013-05-28 20:37:00,
2013-05-28 13:42:00,72.9,55.3,29.97,NNW,335,2.0,5.0,54,0.00,,,0.00,557,Wunderground v.1.15,2013-05-28 20:42:00,
2013-05-28 13:48:00,72.3,55.2,29.97,NNW,347,2.0,5.0,55,0.00,,,0.00,772,Wunderground v.1.15,2013-05-28 20:48:00,
2013-05-28 13:53:00,72.0,55.9,29.97,NNW,336,2.0,4.0,57,0.00,,,0.00,912,Wunderground v.1.15,2013-05-28 20:53:00,
2013-05-28 13:59:00,72.3,55.7,29.97,North,355,1.0,4.0,56,0.00,,,0.00,984,Wunderground v.1.15,2013-05-28 20:59:00,
2013-05-28 14:04:00,72.7,57.1,29.97,West,274,3.0,9.0,58,0.00,,,0.00,909,Wunderground v.1.15,2013-05-28 21:04:00,
2013-05-28 14:09:00,72.4,55.8,29.97,NW,321,3.0,9.0,56,0.00,,,0.00,981,Wunderground v.1.15,2013-05-28 21:09:00,
2013-05-28 14:15:00,72.5,56.4,29.97,West,281,2.0,4.0,57,0.00,,,0.00,962,Wunderground v.1.15,2013-05-28 21:15:00,
2013-05-28 14:21:00,72.9,56.3,29.97,West,265,1.0,4.0,56,0.00,,,0.00,441,Wunderground v.1.15,2013-05-28 21:21:00,
2013-05-28 14:27:00,73.6,57.4,29.96,South,181,3.0,7.0,57,0.00,,,0.00,1160,Wunderground v.1.15,2013-05-28 21:27:00,
2013-05-28 14:32:00,73.8,57.6,29.97,WSW,238,4.0,4.0,57,0.00,,,0.00,1160,Wunderground v.1.15,2013-05-28 21:32:00,
2013-05-28 14:37:00,73.2,56.6,29.97,SW,232,4.0,12.0,56,0.00,,,0.00,311,Wunderground v.1.15,2013-05-28 21:37:00,
2013-05-28 14:43:00,72.4,57.3,29.97,WSW,257,4.0,8.0,59,0.00,,,0.00,424,Wunderground v.1.15,2013-05-28 21:43:00,
2013-05-28 14:48:00,72.1,57.0,29.97,SW,217,4.0,8.0,59,0.00,,,0.00,357,Wunderground v.1.15,2013-05-28 21:48:00,
2013-05-28 14:54:00,71.8,56.7,29.96,SSW,200,5.0,12.0,59,0.00,,,0.00,1127,Wunderground v.1.15,2013-05-28 21:54:00,
2013-05-28 15:00:00,71.7,56.6,29.96,SW,232,6.0,6.0,59,0.00,,,0.00,1014,Wunderground v.1.15,2013-05-28 22:00:00,
2013-05-28 15:06:00,71.6,56.5,29.97,SW,233,7.0,13.0,59,0.00,,,0.00,1074,Wunderground v.1.15,2013-05-28 22:06:00,
2013-05-28 15:12:00,71.7,56.1,29.97,SSW,199,7.0,7.0,58,0.00,,,0.00,905,Wunderground v.1.15,2013-05-28 22:12:00,
2013-05-28 15:17:00,71.7,56.6,29.96,SW,236,6.0,9.0,59,0.00,,,0.00,930,Wunderground v.1.15,2013-05-28 22:17:00,
2013-05-28 15:23:00,72.2,56.1,29.96,WSW,243,5.0,8.0,57,0.00,,,0.00,981,Wunderground v.1.15,2013-05-28 22:23:00,
2013-05-28 15:29:00,72.1,56.0,29.96,West,273,6.0,8.0,57,0.00,,,0.00,824,Wunderground v.1.15,2013-05-28 22:29:00,
2013-05-28 15:35:00,72.8,56.7,29.96,SW,215,3.0,6.0,57,0.00,,,0.00,817,Wunderground v.1.15,2013-05-28 22:35:00,
2013-05-28 15:40:00,73.1,56.0,29.95,SSW,207,3.0,12.0,55,0.00,,,0.00,817,Wunderground v.1.15,2013-05-28 22:40:00,
2013-05-28 15:45:00,72.7,56.1,29.95,SSW,207,6.0,12.0,56,0.00,,,0.00,800,Wunderground v.1.15,2013-05-28 22:45:00,
2013-05-28 15:51:00,73.0,56.4,29.95,SSW,213,4.0,5.0,56,0.00,,,0.00,780,Wunderground v.1.15,2013-05-28 22:51:00,
2013-05-28 15:56:00,72.9,55.8,29.95,WSW,252,4.0,9.0,55,0.00,,,0.00,761,Wunderground v.1.15,2013-05-28 22:56:00,
2013-05-28 16:02:00,72.5,55.9,29.94,West,272,5.0,6.0,56,0.00,,,0.00,745,Wunderground v.1.15,2013-05-28 23:02:00,
2013-05-28 16:07:00,72.6,55.5,29.95,West,271,5.0,8.0,55,0.00,,,0.00,731,Wunderground v.1.15,2013-05-28 23:07:00,
2013-05-28 16:13:00,72.7,55.6,29.94,SW,227,5.0,8.0,55,0.00,,,0.00,717,Wunderground v.1.15,2013-05-28 23:13:00,
2013-05-28 16:19:00,72.9,55.8,29.95,West,275,4.0,8.0,55,0.00,,,0.00,701,Wunderground v.1.15,2013-05-28 23:19:00,
2013-05-28 16:24:00,73.1,56.0,29.95,SW,229,4.0,8.0,55,0.00,,,0.00,687,Wunderground v.1.15,2013-05-28 23:24:00,
2013-05-28 16:29:00,73.2,56.1,29.95,SW,217,4.0,10.0,55,0.00,,,0.00,673,Wunderground v.1.15,2013-05-28 23:29:00,
2013-05-28 16:34:00,73.1,55.5,29.95,South,184,4.0,7.0,54,0.00,,,0.00,661,Wunderground v.1.15,2013-05-28 23:34:00,
2013-05-28 16:40:00,72.6,54.5,29.95,South,180,6.0,8.0,53,0.00,,,0.00,645,Wunderground v.1.15,2013-05-28 23:40:00,
2013-05-28 16:46:00,71.2,53.7,29.95,SSW,200,8.0,17.0,54,0.00,,,0.00,631,Wunderground v.1.15,2013-05-28 23:46:00,
2013-05-28 16:52:00,69.9,53.5,29.95,WSW,240,7.0,10.0,56,0.00,,,0.00,615,Wunderground v.1.15,2013-05-28 23:52:00,
2013-05-28 16:58:00,69.1,53.2,29.95,SW,235,7.0,10.0,57,0.00,,,0.00,594,Wunderground v.1.15,2013-05-28 23:58:00,
2013-05-28 17:04:00,68.6,53.2,29.95,SW,217,7.0,14.0,58,0.00,,,0.00,577,Wunderground v.1.15,2013-05-29 00:04:00,
2013-05-28 17:10:00,68.5,53.6,29.94,WSW,243,6.0,6.0,59,0.00,,,0.00,559,Wunderground v.1.15,2013-05-29 00:10:00,
2013-05-28 17:16:00,68.6,53.7,29.94,SSW,196,6.0,12.0,59,0.00,,,0.00,543,Wunderground v.1.15,2013-05-29 00:16:00,
2013-05-28 17:22:00,69.0,54.1,29.94,WSW,248,4.0,4.0,59,0.00,,,0.00,522,Wunderground v.1.15,2013-05-29 00:22:00,
2013-05-28 17:27:00,69.5,54.5,29.94,West,265,3.0,8.0,59,0.00,,,0.00,506,Wunderground v.1.15,2013-05-29 00:27:00,
2013-05-28 17:32:00,69.7,53.8,29.94,WSW,257,4.0,7.0,57,0.00,,,0.00,490,Wunderground v.1.15,2013-05-29 00:32:00,
2013-05-28 17:38:00,69.6,54.2,29.94,WSW,242,4.0,8.0,58,0.00,,,0.00,473,Wunderground v.1.15,2013-05-29 00:38:00,
2013-05-28 17:44:00,69.4,53.5,29.94,SW,227,4.0,8.0,57,0.00,,,0.00,457,Wunderground v.1.15,2013-05-29 00:44:00,
2013-05-28 17:49:00,69.0,54.1,29.94,WNW,284,5.0,10.0,59,0.00,,,0.00,441,Wunderground v.1.15,2013-05-29 00:49:00,
2013-05-28 17:54:00,69.0,53.6,29.94,WSW,242,4.0,8.0,58,0.00,,,0.00,425,Wunderground v.1.15,2013-05-29 00:54:00,
2013-05-28 17:59:00,68.9,54.0,29.94,SSW,207,4.0,8.0,59,0.00,,,0.00,408,Wunderground v.1.15,2013-05-29 00:59:00,
2013-05-28 18:05:00,68.4,53.5,29.94,SW,216,3.0,6.0,59,0.00,,,0.00,390,Wunderground v.1.15,2013-05-29 01:05:00,
2013-05-28 18:10:00,68.4,53.5,29.94,SSW,200,3.0,6.0,59,0.00,,,0.00,374,Wunderground v.1.15,2013-05-29 01:10:00,
2013-05-28 18:16:00,68.4,53.5,29.94,WNW,288,2.0,6.0,59,0.00,,,0.00,355,Wunderground v.1.15,2013-05-29 01:16:00,
2013-05-28 18:21:00,68.4,53.5,29.94,SSW,210,2.0,3.0,59,0.00,,,0.00,339,Wunderground v.1.15,2013-05-29 01:21:00,
2013-05-28 18:26:00,68.3,53.4,29.94,SW,225,2.0,4.0,59,0.00,,,0.00,320,Wunderground v.1.15,2013-05-29 01:26:00,
2013-05-28 18:32:00,68.5,53.6,29.93,West,277,1.0,7.0,59,0.00,,,0.00,301,Wunderground v.1.15,2013-05-29 01:32:00,
2013-05-28 18:37:00,68.5,53.6,29.93,WSW,253,2.0,7.0,59,0.00,,,0.00,276,Wunderground v.1.15,2013-05-29 01:37:00,
2013-05-28 18:42:00,68.1,53.2,29.93,SSW,201,3.0,4.0,59,0.00,,,0.00,190,Wunderground v.1.15,2013-05-29 01:42:00,
2013-05-28 18:47:00,67.7,52.9,29.93,SSW,202,3.0,4.0,59,0.00,,,0.00,190,Wunderground v.1.15,2013-05-29 01:47:00,
2013-05-28 18:52:00,67.2,52.8,29.93,WSW,243,3.0,5.0,60,0.00,,,0.00,211,Wunderground v.1.15,2013-05-29 01:52:00,
2013-05-28 18:58:00,66.7,52.8,29.93,SW,232,3.0,8.0,61,0.00,,,0.00,116,Wunderground v.1.15,2013-05-29 01:58:00,
2013-05-28 19:03:00,66.4,52.5,29.94,SW,228,2.0,4.0,61,0.00,,,0.00,111,Wunderground v.1.15,2013-05-29 02:03:00,
2013-05-28 19:08:00,65.8,52.4,29.94,WSW,242,3.0,6.0,62,0.00,,,0.00,56,Wunderground v.1.15,2013-05-29 02:08:00,
2013-05-28 19:13:00,65.5,52.1,29.93,WSW,257,2.0,4.0,62,0.00,,,0.00,95,Wunderground v.1.15,2013-05-29 02:13:00,
2013-05-28 19:19:00,65.2,52.3,29.94,West,277,1.0,4.0,63,0.00,,,0.00,72,Wunderground v.1.15,2013-05-29 02:19:00,
2013-05-28 19:25:00,64.8,51.9,29.94,SW,221,1.0,4.0,63,0.00,,,0.00,53,Wunderground v.1.15,2013-05-29 02:25:00,
2013-05-28 19:30:00,64.4,52.0,29.94,WSW,257,1.0,4.0,64,0.00,,,0.00,91,Wunderground v.1.15,2013-05-29 02:30:00,
2013-05-28 19:35:00,64.2,52.2,29.94,WSW,257,1.0,4.0,65,0.00,,,0.00,53,Wunderground v.1.15,2013-05-29 02:35:00,
2013-05-28 19:41:00,64.0,52.0,29.94,WSW,257,0.0,4.0,65,0.00,,,0.00,51,Wunderground v.1.15,2013-05-29 02:41:00,
2013-05-28 19:46:00,64.0,52.0,29.94,WSW,257,0.0,4.0,65,0.00,,,0.00,39,Wunderground v.1.15,2013-05-29 02:46:00,
2013-05-28 19:51:00,63.8,52.2,29.94,WSW,257,0.0,4.0,66,0.00,,,0.00,33,Wunderground v.1.15,2013-05-29 02:51:00,
2013-05-28 19:57:00,63.7,52.1,29.94,WSW,255,0.0,4.0,66,0.00,,,0.00,26,Wunderground v.1.15,2013-05-29 02:57:00,
2013-05-28 20:03:00,63.5,51.9,29.94,WSW,256,0.0,4.0,66,0.00,,,0.00,19,Wunderground v.1.15,2013-05-29 03:03:00,
2013-05-28 20:08:00,63.3,51.7,29.93,WSW,255,0.0,4.0,66,0.00,,,0.00,16,Wunderground v.1.15,2013-05-29 03:08:00,
2013-05-28 20:14:00,63.1,52.0,29.94,WSW,255,0.0,4.0,67,0.00,,,0.00,9,Wunderground v.1.15,2013-05-29 03:14:00,
2013-05-28 20:19:00,62.9,51.8,29.93,WSW,256,0.0,4.0,67,0.00,,,0.00,5,Wunderground v.1.15,2013-05-29 03:19:00,
2013-05-28 20:24:00,62.7,51.6,29.93,WSW,256,0.0,4.0,67,0.00,,,0.00,0,Wunderground v.1.15,2013-05-29 03:24:00,
2013-05-28 20:29:00,62.5,51.8,29.93,WSW,256,0.0,4.0,68,0.00,,,0.00,0,Wunderground v.1.15,2013-05-29 03:29:00,
2013-05-28 20:35:00,62.3,52.0,29.94,WSW,256,0.0,4.0,69,0.00,,,0.00,0,Wunderground v.1.15,2013-05-29 03:35:00,
2013-05-28 20:40:00,62.1,51.8,29.94,WSW,255,0.0,4.0,69,0.00,,,0.00,0,Wunderground v.1.15,2013-05-29 03:40:00,
2013-05-28 20:46:00,61.9,52.0,29.94,WSW,255,0.0,4.0,70,0.00,,,0.00,0,Wunderground v.1.15,2013-05-29 03:46:00,
2013-05-28 20:51:00,61.8,51.9,29.94,WSW,255,0.0,4.0,70,0.00,,,0.00,0,Wunderground v.1.15,2013-05-29 03:51:00,
2013-05-28 20:56:00,61.6,52.1,29.93,WSW,256,0.0,4.0,71,0.00,,,0.00,0,Wunderground v.1.15,2013-05-29 03:56:00,
2013-05-28 21:01:00,61.5,52.0,29.93,WSW,256,0.0,4.0,71,0.00,,,0.00,0,Wunderground v.1.15,2013-05-29 04:01:00,
2013-05-28 21:02:00,61.5,52.0,29.93,WSW,255,0.0,4.0,71,0.00,,,0.00,0,Wunderground v.1.15,2013-05-29 04:02:00,
2013-05-28 21:03:00,61.4,51.9,29.93,WSW,255,0.0,4.0,71,0.00,,,0.00,0,Wunderground v.1.15,2013-05-29 04:03:00,
2013-05-28 21:04:00,61.4,51.9,29.93,WSW,255,0.0,4.0,71,0.00,,,0.00,0,Wunderground v.1.15,2013-05-29 04:04:00,
2013-05-28 21:05:00,61.4,51.9,29.93,WSW,255,0.0,4.0,71,0.00,,,0.00,0,Wunderground v.1.15,2013-05-29 04:05:00,
2013-05-28 21:10:00,61.3,52.2,29.93,WSW,256,0.0,4.0,72,0.00,,,0.00,0,Wunderground v.1.15,2013-05-29 04:10:00,
2013-05-28 21:15:00,61.2,52.1,29.93,WSW,256,0.0,4.0,72,0.00,,,0.00,0,Wunderground v.1.15,2013-05-29 04:15:00,
2013-05-28 21:21:00,61.0,51.9,29.93,WSW,255,0.0,4.0,72,0.00,,,0.00,0,Wunderground v.1.15,2013-05-29 04:21:00,
2013-05-28 21:27:00,60.8,51.7,29.92,WSW,255,0.0,4.0,72,0.00,,,0.00,0,Wunderground v.1.15,2013-05-29 04:27:00,
2013-05-28 21:32:00,60.6,51.9,29.93,WSW,255,0.0,4.0,73,0.00,,,0.00,0,Wunderground v.1.15,2013-05-29 04:32:00,
2013-05-28 21:38:00,60.2,51.5,29.92,WSW,255,0.0,4.0,73,0.00,,,0.00,0,Wunderground v.1.15,2013-05-29 04:38:00,
2013-05-28 21:43:00,60.1,51.4,29.93,WSW,255,0.0,4.0,73,0.00,,,0.00,0,Wunderground v.1.15,2013-05-29 04:43:00,
2013-05-28 21:48:00,60.0,51.7,29.93,WSW,255,0.0,4.0,74,0.00,,,0.00,0,Wunderground v.1.15,2013-05-29 04:48:00,
2013-05-28 21:53:00,59.9,51.6,29.93,WSW,255,0.0,4.0,74,0.00,,,0.00,0,Wunderground v.1.15,2013-05-29 04:53:00,
2013-05-28 21:58:00,59.8,51.9,29.93,WSW,255,0.0,4.0,75,0.00,,,0.00,0,Wunderground v.1.15,2013-05-29 04:58:00,
2013-05-28 22:04:00,59.8,51.9,29.93,WSW,255,0.0,4.0,75,0.00,,,0.00,0,Wunderground v.1.15,2013-05-29 05:04:00,
2013-05-28 22:09:00,59.8,52.2,29.94,WSW,255,0.0,4.0,76,0.00,,,0.00,0,Wunderground v.1.15,2013-05-29 05:09:00,
2013-05-28 22:15:00,59.8,52.2,29.94,WSW,256,0.0,4.0,76,0.00,,,0.00,0,Wunderground v.1.15,2013-05-29 05:15:00,
2013-05-28 22:20:00,59.8,52.2,29.94,WSW,256,0.0,4.0,76,0.00,,,0.00,0,Wunderground v.1.15,2013-05-29 05:20:00,
2013-05-28 22:25:00,59.9,52.0,29.94,WSW,256,0.0,4.0,75,0.00,,,0.00,0,Wunderground v.1.15,2013-05-29 05:25:00,
2013-05-28 22:30:00,59.8,51.9,29.93,WSW,256,0.0,4.0,75,0.00,,,0.00,0,Wunderground v.1.15,2013-05-29 05:30:00,
2013-05-28 22:35:00,59.8,51.9,29.93,WSW,256,0.0,4.0,75,0.00,,,0.00,0,Wunderground v.1.15,2013-05-29 05:35:00,
2013-05-28 22:41:00,59.8,51.9,29.93,WSW,256,0.0,4.0,75,0.00,,,0.00,0,Wunderground v.1.15,2013-05-29 05:41:00,
2013-05-28 22:46:00,59.7,51.8,29.93,WSW,256,0.0,4.0,75,0.00,,,0.00,0,Wunderground v.1.15,2013-05-29 05:46:00,
2013-05-28 22:51:00,59.7,52.1,29.95,WSW,256,0.0,4.0,76,0.00,,,0.00,0,Wunderground v.1.15,2013-05-29 05:51:00,
2013-05-28 22:56:00,59.6,52.0,29.95,WSW,256,0.0,4.0,76,0.00,,,0.00,0,Wunderground v.1.15,2013-05-29 05:56:00,
2013-05-28 23:01:00,59.6,52.0,29.95,WSW,256,0.0,4.0,76,0.00,,,0.00,0,Wunderground v.1.15,2013-05-29 06:01:00,
2013-05-28 23:06:00,59.6,52.0,29.95,WSW,256,0.0,4.0,76,0.00,,,0.00,0,Wunderground v.1.15,2013-05-29 06:06:00,
2013-05-28 23:12:00,59.5,51.9,29.95,WSW,256,0.0,4.0,76,0.00,,,0.00,0,Wunderground v.1.15,2013-05-29 06:12:00,
2013-05-28 23:17:00,59.4,51.8,29.95,NW,309,0.0,4.0,76,0.00,,,0.00,0,Wunderground v.1.15,2013-05-29 06:17:00,
2013-05-28 23:23:00,59.3,51.4,29.95,NW,305,1.0,4.0,75,0.00,,,0.00,0,Wunderground v.1.15,2013-05-29 06:23:00,
2013-05-28 23:28:00,59.0,51.1,29.95,NW,320,2.0,4.0,75,0.00,,,0.00,0,Wunderground v.1.15,2013-05-29 06:28:00,
2013-05-28 23:33:00,58.8,51.2,29.95,NW,310,2.0,4.0,76,0.00,,,0.00,0,Wunderground v.1.15,2013-05-29 06:33:00,
2013-05-28 23:39:00,58.6,51.1,29.95,WNW,303,2.0,4.0,76,0.00,,,0.00,0,Wunderground v.1.15,2013-05-29 06:39:00,
2013-05-28 23:44:00,58.5,51.0,29.95,WNW,303,1.0,4.0,76,0.00,,,0.00,0,Wunderground v.1.15,2013-05-29 06:44:00,
2013-05-28 23:49:00,58.3,51.1,29.94,WNW,301,0.0,4.0,77,0.00,,,0.00,0,Wunderground v.1.15,2013-05-29 06:49:00,
2013-05-28 23:55:00,58.2,51.0,29.94,WNW,301,0.0,4.0,77,0.00,,,0.00,0,Wunderground v.1.15,2013-05-29 06:55:00,